Year,Month,Day,Hour,Minute,Value (Times are PST for temperature in C)
2016,04,23,00,00,12.40
2016,04,23,00,01,12.40
2016,04,23,00,02,12.40
2016,04,23,00,03,12.40
2016,04,23,00,04,12.40
2016,04,23,00,05,12.40
2016,04,23,00,06,12.40
2016,04,23,00,07,12.30
2016,04,23,00,08,12.30
2016,04,23,00,09,12.30
2016,04,23,00,10,12.30
2016,04,23,00,11,12.30
2016,04,23,00,12,12.30
2016,04,23,00,13,12.30
2016,04,23,00,14,12.30
2016,04,23,00,15,12.20
2016,04,23,00,16,12.20
2016,04,23,00,17,12.20
2016,04,23,00,18,12.20
2016,04,23,00,19,12.20
2016,04,23,00,20,12.20
2016,04,23,00,21,12.10
2016,04,23,00,22,12.10
2016,04,23,00,23,12.10
2016,04,23,00,24,12.10
2016,04,23,00,25,12.10
2016,04,23,00,26,12.00
2016,04,23,00,27,12.00
2016,04,23,00,28,12.00
2016,04,23,00,29,11.90
2016,04,23,00,30,11.90
2016,04,23,00,31,11.90
2016,04,23,00,32,12.00
2016,04,23,00,33,12.00
2016,04,23,00,34,12.00
2016,04,23,00,35,12.10
2016,04,23,00,36,12.10
2016,04,23,00,37,12.10
2016,04,23,00,38,12.20
2016,04,23,00,39,12.20
2016,04,23,00,40,12.20
2016,04,23,00,41,12.30
2016,04,23,00,42,12.30
2016,04,23,00,43,12.30
2016,04,23,00,44,12.30
2016,04,23,00,45,12.30
2016,04,23,00,46,12.40
2016,04,23,00,47,12.40
2016,04,23,00,48,12.40
2016,04,23,00,49,12.40
2016,04,23,00,50,12.40
2016,04,23,00,51,12.40
2016,04,23,00,52,12.40
2016,04,23,00,53,12.40
2016,04,23,00,54,12.40
2016,04,23,00,55,12.40
2016,04,23,00,56,12.50
2016,04,23,00,57,12.40
2016,04,23,00,58,12.40
2016,04,23,00,59,12.40
2016,04,23,01,00,12.40
2016,04,23,01,01,12.40
2016,04,23,01,02,12.40
2016,04,23,01,03,12.40
2016,04,23,01,04,12.40
2016,04,23,01,05,12.40
2016,04,23,01,06,12.40
2016,04,23,01,07,12.40
2016,04,23,01,08,12.40
2016,04,23,01,09,12.40
2016,04,23,01,10,12.30
2016,04,23,01,11,12.30
2016,04,23,01,12,12.30
2016,04,23,01,13,12.30
2016,04,23,01,14,12.30
2016,04,23,01,15,12.30
2016,04,23,01,16,12.30
2016,04,23,01,17,12.30
2016,04,23,01,18,12.30
2016,04,23,01,19,12.30
2016,04,23,01,20,12.30
2016,04,23,01,21,12.30
2016,04,23,01,22,12.30
2016,04,23,01,23,12.30
2016,04,23,01,24,12.30
2016,04,23,01,25,12.30
2016,04,23,01,26,12.30
2016,04,23,01,27,12.30
2016,04,23,01,28,12.30
2016,04,23,01,29,12.30
2016,04,23,01,30,12.30
2016,04,23,01,31,12.30
2016,04,23,01,32,12.30
2016,04,23,01,33,12.30
2016,04,23,01,34,12.30
2016,04,23,01,35,12.20
2016,04,23,01,36,12.20
2016,04,23,01,37,12.20
2016,04,23,01,38,12.20
2016,04,23,01,39,12.20
2016,04,23,01,40,12.10
2016,04,23,01,41,12.10
2016,04,23,01,42,12.10
2016,04,23,01,43,12.10
2016,04,23,01,44,12.10
2016,04,23,01,45,12.10
2016,04,23,01,46,12.10
2016,04,23,01,47,12.10
2016,04,23,01,48,12.10
2016,04,23,01,49,12.00
2016,04,23,01,50,12.00
2016,04,23,01,51,12.00
2016,04,23,01,52,12.00
2016,04,23,01,53,12.00
2016,04,23,01,54,12.00
2016,04,23,01,55,12.00
2016,04,23,01,56,12.00
2016,04,23,01,57,12.00
2016,04,23,01,58,12.00
2016,04,23,01,59,12.00
2016,04,23,02,00,12.00
2016,04,23,02,01,12.00
2016,04,23,02,02,12.00
2016,04,23,02,03,12.00
2016,04,23,02,04,12.00
2016,04,23,02,05,12.00
2016,04,23,02,06,11.90
2016,04,23,02,07,11.90
2016,04,23,02,08,11.90
2016,04,23,02,09,11.90
2016,04,23,02,10,11.90
2016,04,23,02,11,11.90
2016,04,23,02,12,11.90
2016,04,23,02,13,11.90
2016,04,23,02,14,11.90
2016,04,23,02,15,11.90
2016,04,23,02,16,11.90
2016,04,23,02,17,11.90
2016,04,23,02,18,11.90
2016,04,23,02,19,11.90
2016,04,23,02,20,11.80
2016,04,23,02,21,11.80
2016,04,23,02,22,11.80
2016,04,23,02,23,11.80
2016,04,23,02,24,11.80
2016,04,23,02,25,11.80
2016,04,23,02,26,11.80
2016,04,23,02,27,11.80
2016,04,23,02,28,11.80
2016,04,23,02,29,11.80
2016,04,23,02,30,11.80
2016,04,23,02,31,11.80
2016,04,23,02,32,11.80
2016,04,23,02,33,11.80
2016,04,23,02,34,11.80
2016,04,23,02,35,11.80
2016,04,23,02,36,11.80
2016,04,23,02,37,11.80
2016,04,23,02,38,11.90
2016,04,23,02,39,11.90
2016,04,23,02,40,11.90
2016,04,23,02,41,12.00
2016,04,23,02,42,12.00
2016,04,23,02,43,12.00
2016,04,23,02,44,12.10
2016,04,23,02,45,12.10
2016,04,23,02,46,12.10
2016,04,23,02,47,12.10
2016,04,23,02,48,12.10
2016,04,23,02,49,12.10
2016,04,23,02,50,12.10
2016,04,23,02,51,12.10
2016,04,23,02,52,12.10
2016,04,23,02,53,12.10
2016,04,23,02,54,12.10
2016,04,23,02,55,12.20
2016,04,23,02,56,12.20
2016,04,23,02,57,12.20
2016,04,23,02,58,12.20
2016,04,23,02,59,12.20
2016,04,23,03,00,12.20
2016,04,23,03,01,12.20
2016,04,23,03,02,12.20
2016,04,23,03,03,12.20
2016,04,23,03,04,12.20
2016,04,23,03,05,12.20
2016,04,23,03,06,12.20
2016,04,23,03,07,12.20
2016,04,23,03,08,12.20
2016,04,23,03,09,12.20
2016,04,23,03,10,12.20
2016,04,23,03,11,12.20
2016,04,23,03,12,12.20
2016,04,23,03,13,12.20
2016,04,23,03,14,12.10
2016,04,23,03,15,12.10
2016,04,23,03,16,12.10
2016,04,23,03,17,12.10
2016,04,23,03,18,12.10
2016,04,23,03,19,12.00
2016,04,23,03,20,12.00
2016,04,23,03,21,12.00
2016,04,23,03,22,11.90
2016,04,23,03,23,11.90
2016,04,23,03,24,11.90
2016,04,23,03,25,11.90
2016,04,23,03,26,11.90
2016,04,23,03,27,11.90
2016,04,23,03,28,11.90
2016,04,23,03,29,11.90
2016,04,23,03,30,11.90
2016,04,23,03,31,12.00
2016,04,23,03,32,12.00
2016,04,23,03,33,12.00
2016,04,23,03,34,12.10
2016,04,23,03,35,12.10
2016,04,23,03,36,12.10
2016,04,23,03,37,12.10
2016,04,23,03,38,12.10
2016,04,23,03,39,12.10
2016,04,23,03,40,12.10
2016,04,23,03,41,12.10
2016,04,23,03,42,12.10
2016,04,23,03,43,12.10
2016,04,23,03,44,12.10
2016,04,23,03,45,12.10
2016,04,23,03,46,12.10
2016,04,23,03,47,12.10
2016,04,23,03,48,12.10
2016,04,23,03,49,12.10
2016,04,23,03,50,12.10
2016,04,23,03,51,12.10
2016,04,23,03,52,12.00
2016,04,23,03,53,12.00
2016,04,23,03,54,12.00
2016,04,23,03,55,12.00
2016,04,23,03,56,11.90
2016,04,23,03,57,11.90
2016,04,23,03,58,11.90
2016,04,23,03,59,11.90
2016,04,23,04,00,11.90
2016,04,23,04,01,11.90
2016,04,23,04,02,11.90
2016,04,23,04,03,11.80
2016,04,23,04,04,11.80
2016,04,23,04,05,11.80
2016,04,23,04,06,11.80
2016,04,23,04,07,11.80
2016,04,23,04,08,11.80
2016,04,23,04,09,11.80
2016,04,23,04,10,11.70
2016,04,23,04,11,11.70
2016,04,23,04,12,11.70
2016,04,23,04,13,11.70
2016,04,23,04,14,11.70
2016,04,23,04,15,11.70
2016,04,23,04,16,11.70
2016,04,23,04,17,11.70
2016,04,23,04,18,11.70
2016,04,23,04,19,11.70
2016,04,23,04,20,11.70
2016,04,23,04,21,11.70
2016,04,23,04,22,11.70
2016,04,23,04,23,11.70
2016,04,23,04,24,11.70
2016,04,23,04,25,11.70
2016,04,23,04,26,11.70
2016,04,23,04,27,11.60
2016,04,23,04,28,11.60
2016,04,23,04,29,11.60
2016,04,23,04,30,11.60
2016,04,23,04,31,11.60
2016,04,23,04,32,11.60
2016,04,23,04,33,11.60
2016,04,23,04,34,11.60
2016,04,23,04,35,11.60
2016,04,23,04,36,11.50
2016,04,23,04,37,11.50
2016,04,23,04,38,11.50
2016,04,23,04,39,11.50
2016,04,23,04,40,11.50
2016,04,23,04,41,11.50
2016,04,23,04,42,11.60
2016,04,23,04,43,11.60
2016,04,23,04,44,11.60
2016,04,23,04,45,11.60
2016,04,23,04,46,11.60
2016,04,23,04,47,11.60
2016,04,23,04,48,11.60
2016,04,23,04,49,11.60
2016,04,23,04,50,11.60
2016,04,23,04,51,11.60
2016,04,23,04,52,11.60
2016,04,23,04,53,11.60
2016,04,23,04,54,11.60
2016,04,23,04,55,11.60
2016,04,23,04,56,11.60
2016,04,23,04,57,11.60
2016,04,23,04,58,11.60
2016,04,23,04,59,11.60
2016,04,23,05,00,11.60
2016,04,23,05,01,11.60
2016,04,23,05,02,11.60
2016,04,23,05,03,11.60
2016,04,23,05,04,11.60
2016,04,23,05,05,11.60
2016,04,23,05,06,11.60
2016,04,23,05,07,11.60
2016,04,23,05,08,11.60
2016,04,23,05,09,11.60
2016,04,23,05,10,11.60
2016,04,23,05,11,11.60
2016,04,23,05,12,11.60
2016,04,23,05,13,11.50
2016,04,23,05,14,11.50
2016,04,23,05,15,11.50
2016,04,23,05,16,11.50
2016,04,23,05,17,11.50
2016,04,23,05,18,11.40
2016,04,23,05,19,11.40
2016,04,23,05,20,11.40
2016,04,23,05,21,11.40
2016,04,23,05,22,11.40
2016,04,23,05,23,11.30
2016,04,23,05,24,11.30
2016,04,23,05,25,11.30
2016,04,23,05,26,11.30
2016,04,23,05,27,11.20
2016,04,23,05,28,11.20
2016,04,23,05,29,11.20
2016,04,23,05,30,11.20
2016,04,23,05,31,11.10
2016,04,23,05,32,11.10
2016,04,23,05,33,11.00
2016,04,23,05,34,11.00
2016,04,23,05,35,10.90
2016,04,23,05,36,10.90
2016,04,23,05,37,10.90
2016,04,23,05,38,10.80
2016,04,23,05,39,10.80
2016,04,23,05,40,10.80
2016,04,23,05,41,10.70
2016,04,23,05,42,10.70
2016,04,23,05,43,10.70
2016,04,23,05,44,10.70
2016,04,23,05,45,10.70
2016,04,23,05,46,10.70
2016,04,23,05,47,10.60
2016,04,23,05,48,10.60
2016,04,23,05,49,10.60
2016,04,23,05,50,10.60
2016,04,23,05,51,10.60
2016,04,23,05,52,10.60
2016,04,23,05,53,10.60
2016,04,23,05,54,10.60
2016,04,23,05,55,10.60
2016,04,23,05,56,10.60
2016,04,23,05,57,10.60
2016,04,23,05,58,10.60
2016,04,23,05,59,10.60
2016,04,23,06,00,10.50
2016,04,23,06,01,10.50
2016,04,23,06,02,10.40
2016,04,23,06,03,10.40
2016,04,23,06,04,10.40
2016,04,23,06,05,10.30
2016,04,23,06,06,10.30
2016,04,23,06,07,10.30
2016,04,23,06,08,10.30
2016,04,23,06,09,10.20
2016,04,23,06,10,10.20
2016,04,23,06,11,10.20
2016,04,23,06,12,10.20
2016,04,23,06,13,10.10
2016,04,23,06,14,10.10
2016,04,23,06,15,10.10
2016,04,23,06,16,10.10
2016,04,23,06,17,10.10
2016,04,23,06,18,10.00
2016,04,23,06,19,10.00
2016,04,23,06,20,9.90
2016,04,23,06,21,9.90
2016,04,23,06,22,9.90
2016,04,23,06,23,9.90
2016,04,23,06,24,9.80
2016,04,23,06,25,9.80
2016,04,23,06,26,9.80
2016,04,23,06,27,9.80
2016,04,23,06,28,9.80
2016,04,23,06,29,9.80
2016,04,23,06,30,9.80
2016,04,23,06,31,9.80
2016,04,23,06,32,9.80
2016,04,23,06,33,9.80
2016,04,23,06,34,9.80
2016,04,23,06,35,9.80
2016,04,23,06,36,9.80
2016,04,23,06,37,9.80
2016,04,23,06,38,9.80
2016,04,23,06,39,9.80
2016,04,23,06,40,9.80
2016,04,23,06,41,9.80
2016,04,23,06,42,9.80
2016,04,23,06,43,9.90
2016,04,23,06,44,9.90
2016,04,23,06,45,9.90
2016,04,23,06,46,10.00
2016,04,23,06,47,10.10
2016,04,23,06,48,10.10
2016,04,23,06,49,10.20
2016,04,23,06,50,10.20
2016,04,23,06,51,10.30
2016,04,23,06,52,10.30
2016,04,23,06,53,10.40
2016,04,23,06,54,10.40
2016,04,23,06,55,10.50
2016,04,23,06,56,10.60
2016,04,23,06,57,10.70
2016,04,23,06,58,10.80
2016,04,23,06,59,10.90
2016,04,23,07,00,11.00
2016,04,23,07,01,11.10
2016,04,23,07,02,11.30
2016,04,23,07,03,11.40
2016,04,23,07,04,11.40
2016,04,23,07,05,11.50
2016,04,23,07,06,11.60
2016,04,23,07,07,11.70
2016,04,23,07,08,11.80
2016,04,23,07,09,11.90
2016,04,23,07,10,12.00
2016,04,23,07,11,12.10
2016,04,23,07,12,12.10
2016,04,23,07,13,12.20
2016,04,23,07,14,12.20
2016,04,23,07,15,12.30
2016,04,23,07,16,12.30
2016,04,23,07,17,12.30
2016,04,23,07,18,12.40
2016,04,23,07,19,12.40
2016,04,23,07,20,12.40
2016,04,23,07,21,12.50
2016,04,23,07,22,12.50
2016,04,23,07,23,12.60
2016,04,23,07,24,12.60
2016,04,23,07,25,12.70
2016,04,23,07,26,12.70
2016,04,23,07,27,12.80
2016,04,23,07,28,12.80
2016,04,23,07,29,12.80
2016,04,23,07,30,12.90
2016,04,23,07,31,13.00
2016,04,23,07,32,13.10
2016,04,23,07,33,13.20
2016,04,23,07,34,13.20
2016,04,23,07,35,13.20
2016,04,23,07,36,13.20
2016,04,23,07,37,13.20
2016,04,23,07,38,13.10
2016,04,23,07,39,13.10
2016,04,23,07,40,13.10
2016,04,23,07,41,13.10
2016,04,23,07,42,13.10
2016,04,23,07,43,13.10
2016,04,23,07,44,13.10
2016,04,23,07,45,13.10
2016,04,23,07,46,13.10
2016,04,23,07,47,13.10
2016,04,23,07,48,13.10
2016,04,23,07,49,13.10
2016,04,23,07,50,13.10
2016,04,23,07,51,13.10
2016,04,23,07,52,13.20
2016,04,23,07,53,13.20
2016,04,23,07,54,13.30
2016,04,23,07,55,13.30
2016,04,23,07,56,13.30
2016,04,23,07,57,13.30
2016,04,23,07,58,13.40
2016,04,23,07,59,13.40
2016,04,23,08,00,13.40
2016,04,23,08,01,13.40
2016,04,23,08,02,13.50
2016,04,23,08,03,13.50
2016,04,23,08,04,13.60
2016,04,23,08,05,13.70
2016,04,23,08,06,13.70
2016,04,23,08,07,13.70
2016,04,23,08,08,13.80
2016,04,23,08,09,13.80
2016,04,23,08,10,13.90
2016,04,23,08,11,14.00
2016,04,23,08,12,14.10
2016,04,23,08,13,14.10
2016,04,23,08,14,14.10
2016,04,23,08,15,14.10
2016,04,23,08,16,14.10
2016,04,23,08,17,14.10
2016,04,23,08,18,14.10
2016,04,23,08,19,14.10
2016,04,23,08,20,14.00
2016,04,23,08,21,14.00
2016,04,23,08,22,13.90
2016,04,23,08,23,13.80
2016,04,23,08,24,13.80
2016,04,23,08,25,13.90
2016,04,23,08,26,13.90
2016,04,23,08,27,13.90
2016,04,23,08,28,13.90
2016,04,23,08,29,13.90
2016,04,23,08,30,13.90
2016,04,23,08,31,13.80
2016,04,23,08,32,13.80
2016,04,23,08,33,13.80
2016,04,23,08,34,13.90
2016,04,23,08,35,13.90
2016,04,23,08,36,13.90
2016,04,23,08,37,13.90
2016,04,23,08,38,13.90
2016,04,23,08,39,13.90
2016,04,23,08,40,13.90
2016,04,23,08,41,13.90
2016,04,23,08,42,13.90
2016,04,23,08,43,14.00
2016,04,23,08,44,14.00
2016,04,23,08,45,14.10
2016,04,23,08,46,14.10
2016,04,23,08,47,14.10
2016,04,23,08,48,14.20
2016,04,23,08,49,14.20
2016,04,23,08,50,14.30
2016,04,23,08,51,14.40
2016,04,23,08,52,14.40
2016,04,23,08,53,14.40
2016,04,23,08,54,14.50
2016,04,23,08,55,14.50
2016,04,23,08,56,14.50
2016,04,23,08,57,14.50
2016,04,23,08,58,14.50
2016,04,23,08,59,14.60
2016,04,23,09,00,14.60
2016,04,23,09,01,14.60
2016,04,23,09,02,14.70
2016,04,23,09,03,14.70
2016,04,23,09,04,14.70
2016,04,23,09,05,14.80
2016,04,23,09,06,14.70
2016,04,23,09,07,14.70
2016,04,23,09,08,14.70
2016,04,23,09,09,14.80
2016,04,23,09,10,14.80
2016,04,23,09,11,14.80
2016,04,23,09,12,14.80
2016,04,23,09,13,14.90
2016,04,23,09,14,14.90
2016,04,23,09,15,14.90
2016,04,23,09,16,15.00
2016,04,23,09,17,15.00
2016,04,23,09,18,15.00
2016,04,23,09,19,15.00
2016,04,23,09,20,15.10
2016,04,23,09,21,15.10
2016,04,23,09,22,15.10
2016,04,23,09,23,15.20
2016,04,23,09,24,15.10
2016,04,23,09,25,15.10
2016,04,23,09,26,15.10
2016,04,23,09,27,15.10
2016,04,23,09,28,15.10
2016,04,23,09,29,15.10
2016,04,23,09,30,15.10
2016,04,23,09,31,15.10
2016,04,23,09,32,15.10
2016,04,23,09,33,15.10
2016,04,23,09,34,15.10
2016,04,23,09,35,15.00
2016,04,23,09,36,15.00
2016,04,23,09,37,15.00
2016,04,23,09,38,15.00
2016,04,23,09,39,15.00
2016,04,23,09,40,15.10
2016,04,23,09,41,15.10
2016,04,23,09,42,15.00
2016,04,23,09,43,14.90
2016,04,23,09,44,14.80
2016,04,23,09,45,14.90
2016,04,23,09,46,15.00
2016,04,23,09,47,15.00
2016,04,23,09,48,15.10
2016,04,23,09,49,15.20
2016,04,23,09,50,15.20
2016,04,23,09,51,15.20
2016,04,23,09,52,15.10
2016,04,23,09,53,15.10
2016,04,23,09,54,15.10
2016,04,23,09,55,15.10
2016,04,23,09,56,15.20
2016,04,23,09,57,15.30
2016,04,23,09,58,15.40
2016,04,23,09,59,15.50
2016,04,23,10,00,15.60
2016,04,23,10,01,15.60
2016,04,23,10,02,15.70
2016,04,23,10,03,15.70
2016,04,23,10,04,15.80
2016,04,23,10,05,15.70
2016,04,23,10,06,15.60
2016,04,23,10,07,15.60
2016,04,23,10,08,15.50
2016,04,23,10,09,15.60
2016,04,23,10,10,15.60
2016,04,23,10,11,15.60
2016,04,23,10,12,15.60
2016,04,23,10,13,15.60
2016,04,23,10,14,15.70
2016,04,23,10,15,15.70
2016,04,23,10,16,15.80
2016,04,23,10,17,15.90
2016,04,23,10,18,15.90
2016,04,23,10,19,15.80
2016,04,23,10,20,15.80
2016,04,23,10,21,15.70
2016,04,23,10,22,15.60
2016,04,23,10,23,15.70
2016,04,23,10,24,15.60
2016,04,23,10,25,15.60
2016,04,23,10,26,15.60
2016,04,23,10,27,15.60
2016,04,23,10,28,15.50
2016,04,23,10,29,15.60
2016,04,23,10,30,15.60
2016,04,23,10,31,15.60
2016,04,23,10,32,15.60
2016,04,23,10,33,15.60
2016,04,23,10,34,15.60
2016,04,23,10,35,15.60
2016,04,23,10,36,15.50
2016,04,23,10,37,15.50
2016,04,23,10,38,15.50
2016,04,23,10,39,15.40
2016,04,23,10,40,15.40
2016,04,23,10,41,15.40
2016,04,23,10,42,15.40
2016,04,23,10,43,15.40
2016,04,23,10,44,15.30
2016,04,23,10,45,15.30
2016,04,23,10,46,15.30
2016,04,23,10,47,15.20
2016,04,23,10,48,15.20
2016,04,23,10,49,15.20
2016,04,23,10,50,15.20
2016,04,23,10,51,15.10
2016,04,23,10,52,14.90
2016,04,23,10,53,14.70
2016,04,23,10,54,14.50
2016,04,23,10,55,14.30
2016,04,23,10,56,14.20
2016,04,23,10,57,14.10
2016,04,23,10,58,14.10
2016,04,23,10,59,14.10
2016,04,23,11,00,14.10
2016,04,23,11,01,14.10
2016,04,23,11,02,14.20
2016,04,23,11,03,14.30
2016,04,23,11,04,14.40
2016,04,23,11,05,14.40
2016,04,23,11,06,14.40
2016,04,23,11,07,14.50
2016,04,23,11,08,14.60
2016,04,23,11,09,14.70
2016,04,23,11,10,14.80
2016,04,23,11,11,14.90
2016,04,23,11,12,15.00
2016,04,23,11,13,15.10
2016,04,23,11,14,15.20
2016,04,23,11,15,15.20
2016,04,23,11,16,15.20
2016,04,23,11,17,15.30
2016,04,23,11,18,15.40
2016,04,23,11,19,15.40
2016,04,23,11,20,15.30
2016,04,23,11,21,15.10
2016,04,23,11,22,14.90
2016,04,23,11,23,14.80
2016,04,23,11,24,14.80
2016,04,23,11,25,14.80
2016,04,23,11,26,14.90
2016,04,23,11,27,15.10
2016,04,23,11,28,15.20
2016,04,23,11,29,15.30
2016,04,23,11,30,15.40
2016,04,23,11,31,15.50
2016,04,23,11,32,15.60
2016,04,23,11,33,15.60
2016,04,23,11,34,15.70
2016,04,23,11,35,15.70
2016,04,23,11,36,15.70
2016,04,23,11,37,15.80
2016,04,23,11,38,15.90
2016,04,23,11,39,15.90
2016,04,23,11,40,16.00
2016,04,23,11,41,16.20
2016,04,23,11,42,16.30
2016,04,23,11,43,16.40
2016,04,23,11,44,16.50
2016,04,23,11,45,16.60
2016,04,23,11,46,16.60
2016,04,23,11,47,16.70
2016,04,23,11,48,16.70
2016,04,23,11,49,16.80
2016,04,23,11,50,16.70
2016,04,23,11,51,16.60
2016,04,23,11,52,16.60
2016,04,23,11,53,16.50
2016,04,23,11,54,15.80
2016,04,23,11,55,15.70
2016,04,23,11,56,15.50
2016,04,23,11,57,15.20
2016,04,23,11,58,15.00
2016,04,23,11,59,14.90
2016,04,23,12,00,14.80
2016,04,23,12,01,14.70
2016,04,23,12,02,14.50
2016,04,23,12,03,14.40
2016,04,23,12,04,14.30
2016,04,23,12,05,14.20
2016,04,23,12,06,14.10
2016,04,23,12,07,14.00
2016,04,23,12,08,13.90
2016,04,23,12,09,13.90
2016,04,23,12,10,13.90
2016,04,23,12,11,13.90
2016,04,23,12,12,13.90
2016,04,23,12,13,13.90
2016,04,23,12,14,14.00
2016,04,23,12,15,14.00
2016,04,23,12,16,14.00
2016,04,23,12,17,14.00
2016,04,23,12,18,13.90
2016,04,23,12,19,13.90
2016,04,23,12,20,13.80
2016,04,23,12,21,13.80
2016,04,23,12,22,13.80
2016,04,23,12,23,13.80
2016,04,23,12,24,13.80
2016,04,23,12,25,13.90
2016,04,23,12,26,13.80
2016,04,23,12,27,13.70
2016,04,23,12,28,13.70
2016,04,23,12,29,13.70
2016,04,23,12,30,13.80
2016,04,23,12,31,13.80
2016,04,23,12,32,13.80
2016,04,23,12,33,13.70
2016,04,23,12,34,13.60
2016,04,23,12,35,13.60
2016,04,23,12,36,13.60
2016,04,23,12,37,13.50
2016,04,23,12,38,13.50
2016,04,23,12,39,13.50
2016,04,23,12,40,13.50
2016,04,23,12,41,13.60
2016,04,23,12,42,13.60
2016,04,23,12,43,13.70
2016,04,23,12,44,13.70
2016,04,23,12,45,13.80
2016,04,23,12,46,13.80
2016,04,23,12,47,13.80
2016,04,23,12,48,13.90
2016,04,23,12,49,13.90
2016,04,23,12,50,13.90
2016,04,23,12,51,13.90
2016,04,23,12,52,14.00
2016,04,23,12,53,14.00
2016,04,23,12,54,13.90
2016,04,23,12,55,13.90
2016,04,23,12,56,13.90
2016,04,23,12,57,13.90
2016,04,23,12,58,13.90
2016,04,23,12,59,13.90
2016,04,23,13,00,13.90
2016,04,23,13,01,13.90
2016,04,23,13,02,13.90
2016,04,23,13,03,13.80
2016,04,23,13,04,13.80
2016,04,23,13,05,13.80
2016,04,23,13,06,13.70
2016,04,23,13,07,13.50
2016,04,23,13,08,13.40
2016,04,23,13,09,13.30
2016,04,23,13,10,13.20
2016,04,23,13,11,13.20
2016,04,23,13,12,13.10
2016,04,23,13,13,13.10
2016,04,23,13,14,13.00
2016,04,23,13,15,12.90
2016,04,23,13,16,13.00
2016,04,23,13,17,13.00
2016,04,23,13,18,13.00
2016,04,23,13,19,13.10
2016,04,23,13,20,13.10
2016,04,23,13,21,13.10
2016,04,23,13,22,13.20
2016,04,23,13,23,13.20
2016,04,23,13,24,13.20
2016,04,23,13,25,13.20
2016,04,23,13,26,13.20
2016,04,23,13,27,13.20
2016,04,23,13,28,13.20
2016,04,23,13,29,13.10
2016,04,23,13,30,13.10
2016,04,23,13,31,13.00
2016,04,23,13,32,13.00
2016,04,23,13,33,12.90
2016,04,23,13,34,12.90
2016,04,23,13,35,12.80
2016,04,23,13,36,12.80
2016,04,23,13,37,12.80
2016,04,23,13,38,12.80
2016,04,23,13,39,12.90
2016,04,23,13,40,13.00
2016,04,23,13,41,13.20
2016,04,23,13,42,13.30
2016,04,23,13,43,13.40
2016,04,23,13,44,13.40
2016,04,23,13,45,13.40
2016,04,23,13,46,13.30
2016,04,23,13,47,13.20
2016,04,23,13,48,13.20
2016,04,23,13,49,13.20
2016,04,23,13,50,13.20
2016,04,23,13,51,13.20
2016,04,23,13,52,13.30
2016,04,23,13,53,13.50
2016,04,23,13,54,13.60
2016,04,23,13,55,13.70
2016,04,23,13,56,13.80
2016,04,23,13,57,13.80
2016,04,23,13,58,13.80
2016,04,23,13,59,13.80
2016,04,23,14,00,13.80
2016,04,23,14,01,13.80
2016,04,23,14,02,13.80
2016,04,23,14,03,13.80
2016,04,23,14,04,13.80
2016,04,23,14,05,14.00
2016,04,23,14,06,14.10
2016,04,23,14,07,14.20
2016,04,23,14,08,14.30
2016,04,23,14,09,14.50
2016,04,23,14,10,14.60
2016,04,23,14,11,14.70
2016,04,23,14,12,14.80
2016,04,23,14,13,14.90
2016,04,23,14,14,15.10
2016,04,23,14,15,15.10
2016,04,23,14,16,15.10
2016,04,23,14,17,15.10
2016,04,23,14,18,15.10
2016,04,23,14,19,15.10
2016,04,23,14,20,15.10
2016,04,23,14,21,15.10
2016,04,23,14,22,15.10
2016,04,23,14,23,15.00
2016,04,23,14,24,14.80
2016,04,23,14,25,14.60
2016,04,23,14,26,14.50
2016,04,23,14,27,14.40
2016,04,23,14,28,14.20
2016,04,23,14,29,14.10
2016,04,23,14,30,14.00
2016,04,23,14,31,13.90
2016,04,23,14,32,13.80
2016,04,23,14,33,13.80
2016,04,23,14,34,13.80
2016,04,23,14,35,13.80
2016,04,23,14,36,13.90
2016,04,23,14,37,13.90
2016,04,23,14,38,14.00
2016,04,23,14,39,14.20
2016,04,23,14,40,14.30
2016,04,23,14,41,14.40
2016,04,23,14,42,14.30
2016,04,23,14,43,14.20
2016,04,23,14,44,14.10
2016,04,23,14,45,14.10
2016,04,23,14,46,14.00
2016,04,23,14,47,13.90
2016,04,23,14,48,13.80
2016,04,23,14,49,13.80
2016,04,23,14,50,13.90
2016,04,23,14,51,14.00
2016,04,23,14,52,14.20
2016,04,23,14,53,14.30
2016,04,23,14,54,14.30
2016,04,23,14,55,14.40
2016,04,23,14,56,14.40
2016,04,23,14,57,14.40
2016,04,23,14,58,14.30
2016,04,23,14,59,14.20
2016,04,23,15,00,14.00
2016,04,23,15,01,13.90
2016,04,23,15,02,13.70
2016,04,23,15,03,13.60
2016,04,23,15,04,13.60
2016,04,23,15,05,13.60
2016,04,23,15,06,13.60
2016,04,23,15,07,13.60
2016,04,23,15,08,13.60
2016,04,23,15,09,13.60
2016,04,23,15,10,13.70
2016,04,23,15,11,13.70
2016,04,23,15,12,13.70
2016,04,23,15,13,13.70
2016,04,23,15,14,13.70
2016,04,23,15,15,13.70
2016,04,23,15,16,13.70
2016,04,23,15,17,13.80
2016,04,23,15,18,13.80
2016,04,23,15,19,13.70
2016,04,23,15,20,13.70
2016,04,23,15,21,13.60
2016,04,23,15,22,13.60
2016,04,23,15,23,13.60
2016,04,23,15,24,13.50
2016,04,23,15,25,13.50
2016,04,23,15,26,13.40
2016,04,23,15,27,13.40
2016,04,23,15,28,13.40
2016,04,23,15,29,13.50
2016,04,23,15,30,13.50
2016,04,23,15,31,13.50
2016,04,23,15,32,13.50
2016,04,23,15,33,13.60
2016,04,23,15,34,13.60
2016,04,23,15,35,13.60
2016,04,23,15,36,13.60
2016,04,23,15,37,13.70
2016,04,23,15,38,13.70
2016,04,23,15,39,13.80
2016,04,23,15,40,13.90
2016,04,23,15,41,13.90
2016,04,23,15,42,14.00
2016,04,23,15,43,14.00
2016,04,23,15,44,14.20
2016,04,23,15,45,14.30
2016,04,23,15,46,14.50
2016,04,23,15,47,14.50
2016,04,23,15,48,14.70
2016,04,23,15,49,14.80
2016,04,23,15,50,14.80
2016,04,23,15,51,14.90
2016,04,23,15,52,14.90
2016,04,23,15,53,14.90
2016,04,23,15,54,15.00
2016,04,23,15,55,15.00
2016,04,23,15,56,15.00
2016,04,23,15,57,15.00
2016,04,23,15,58,15.10
2016,04,23,15,59,15.10
2016,04,23,16,00,15.10
2016,04,23,16,01,15.00
2016,04,23,16,02,15.00
2016,04,23,16,03,14.90
2016,04,23,16,04,14.90
2016,04,23,16,05,14.90
2016,04,23,16,06,14.90
2016,04,23,16,07,14.90
2016,04,23,16,08,14.90
2016,04,23,16,09,14.90
2016,04,23,16,10,14.80
2016,04,23,16,11,14.80
2016,04,23,16,12,14.80
2016,04,23,16,13,14.80
2016,04,23,16,14,14.80
2016,04,23,16,15,14.70
2016,04,23,16,16,14.70
2016,04,23,16,17,14.70
2016,04,23,16,18,14.70
2016,04,23,16,19,14.70
2016,04,23,16,20,14.80
2016,04,23,16,21,14.80
2016,04,23,16,22,14.80
2016,04,23,16,23,14.80
2016,04,23,16,24,14.70
2016,04,23,16,25,14.70
2016,04,23,16,26,14.60
2016,04,23,16,27,14.50
2016,04,23,16,28,14.50
2016,04,23,16,29,14.40
2016,04,23,16,30,14.40
2016,04,23,16,31,14.40
2016,04,23,16,32,14.40
2016,04,23,16,33,14.30
2016,04,23,16,34,14.30
2016,04,23,16,35,14.30
2016,04,23,16,36,14.30
2016,04,23,16,37,14.20
2016,04,23,16,38,14.20
2016,04,23,16,39,14.10
2016,04,23,16,40,14.10
2016,04,23,16,41,14.00
2016,04,23,16,42,14.00
2016,04,23,16,43,13.90
2016,04,23,16,44,13.90
2016,04,23,16,45,13.90
2016,04,23,16,46,13.90
2016,04,23,16,47,14.00
2016,04,23,16,48,13.90
2016,04,23,16,49,14.00
2016,04,23,16,50,14.00
2016,04,23,16,51,13.90
2016,04,23,16,52,13.90
2016,04,23,16,53,13.90
2016,04,23,16,54,14.00
2016,04,23,16,55,13.90
2016,04,23,16,56,13.90
2016,04,23,16,57,13.90
2016,04,23,16,58,13.90
2016,04,23,16,59,13.90
2016,04,23,17,00,13.90
2016,04,23,17,01,13.90
2016,04,23,17,02,13.90
2016,04,23,17,03,13.90
2016,04,23,17,04,13.90
2016,04,23,17,05,13.90
2016,04,23,17,06,13.90
2016,04,23,17,07,14.00
2016,04,23,17,08,14.00
2016,04,23,17,09,14.00
2016,04,23,17,10,14.00
2016,04,23,17,11,14.00
2016,04,23,17,12,14.00
2016,04,23,17,13,14.10
2016,04,23,17,14,14.10
2016,04,23,17,15,14.10
2016,04,23,17,16,14.10
2016,04,23,17,17,14.10
2016,04,23,17,18,14.10
2016,04,23,17,19,14.20
2016,04,23,17,20,14.20